User: anonymous   Login
Location: Cointrin
(46.2167°N, 6.1167°E)
Time: 19:20:28
(UTC+00:00)
Language:

COSMOS 2251 DEB - Orbit

View from above orbital plane
View from above orbital plane
View from above satellite
View from above satellite

Ground track
Ground track

The orbit data is extracted from the following two-line orbital elements,

1 33938U 93036ET  24062.17943449  .00001766  00000-0  54011-3 0  9996
2 33938  74.0506 337.9256 0019370 222.5921 267.0231 14.42457065790047
Epoch (UTC): 02 March 2024 04:18:23
Eccentricity: 0.0019370
inclination: 74.0506°
perigee height: 736 km
apogee height: 764 km
right ascension of ascending node: 337.9256°
argument of perigee: 222.5921°
revolutions per day: 14.42457065
mean anomaly at epoch: 267.0231°
orbit number at epoch: 79004

The dashed part of the orbit path shows where the satellite is in the earth's shadow,  

DLR